CZ-6A DEB, 56255

Orbit data source: Space-Track

CZ-6A DEB, 56255 is space debris in SSO originally from a launch on Fri, 11 Nov 2022 UTC launched from the Taiyaun Space Center, China (TSC). Debris objects in space refer to the collection of defunct objects orbiting the Earth. Examples of debris include non-operational satellites, rocket bodies, and fragments generated from explosions, collisions, or faulty payload assembly.

Loading next visibility...
Identifier
56255, 2022-151ABX
Orbit
SSO
Country
Flag of CNCN / PRC
Related business
Manufacturer
SAST
Mission
Spacecraft
Bus & Motor
Unknown
Mass
Unknown
Launch date (UTC)
2022-11-11 (4 years ago)
Launch vehicle
Unknown
Launch site
Taiyaun Space Center, China (TSC)
Object type
Payload
Rocket body
Debris
Shape & HBR
Unknown shape, 0.1 m
Radar Cross Section
Small (<0.1 m²)

Expand to show TLE details & history
Last TLE update: 2 days ago

TLE from 2 days ago
0 CZ-6A DEB
1 56255U 22151ABX 26171.36399212  .00002895  00000-0  18077-2 0  9995
2 56255  98.9194 144.3079 0139917  46.2434 315.0212 14.00799682164456
Epoch: 2026-06-20T08:44Z
TLE epoch observation values (Epoch: 2026-06-20T08:44:08.919Z)
Latitude
-0.00005°
Longitude
104.69107°
Altitude
822.672 km
Speed
7.478 km/s
True Right ascension
09h 37m 13s
True Declination
0° 00' 00"
Sunlit
Object was in daylight at epoch
Visualization orbit readout
Latitude
Unknown
Longitude
Unknown
Altitude
Unknown
Speed
Unknown
Apparent Right ascension
Unknown
Apparent Declination
Unknown
Sunlit
N/A
Visualization observer readout
Local Sidereal Time
21:38:47
Azimuth
Unknown
Elevation
Unknown
Doppler factor
Unknown
Orbital elements
Apogee altitude
989.89 km
Perigee altitude
786.552 km
Semi-major axis
7,266.358 km
Eccentricity
0.01399
Inclination
98.9194°
RAAN
144.3079°
Arg. of periapsis
46.2434°
True anomaly
313.87378°
Mean anomaly
315.0212°
Eccentric anomaly
314.44891°
Mean motion
3.50403 °/min
Orbital period
102.74 mins
BSTAR
0.0018077
Loading maneuver chart data...
Computing Atmospheric mass density...
Loading historical data...
Loading historical data...
Loading historical data...
Loading historical data...
Loading historical data...
Loading historical data...
Loading historical data...

Documentation

Showing up to 5 results
|